SCP
0 0 0 0 0 0 0 0 0 0 0 1 2 4 5 5 4 3 3 3 3 3 3 3 3 4 5 7 7 6 6 6 7 7 6 5 5 5 5 4 4 4 3 3
0 0 0 0 0 0 0 0 0 0 0 1 2 4 4 4 4 3 3 3 3 2 2 3 3 4 5 6 6 6 6 6 7 7 6 6 5 5 5 4 4 4 3 3
0 0 0 0 0 0 0 0 0 0 0 1 2 3 4 4 3 2 3 3 2 2 2 2 3 4 4 4 5 5 5 6 6 7 6 6 5 4 5 4 4 4 3 3
0 0 0 0 0 0 0 0 0 0 0 1 1 2 3 3 2 2 2 2 2 2 1 2 2 3 3 3 3 4 5 5 5 6 6 5 5 4 5 5 4 4 3 3
0 0 0 0 0 0 0 0 0 0 0 1 1 1 2 2 2 2 2 2 2 1 1 2 2 2 2 2 2 3 4 4 5 5 5 5 5 4 4 4 4 4 3 3
0 0 0 0 0 0 0 0 0 0 1 1 1 1 1 2 2 2 2 1 1 1 1 2 2 2 2 2 2 3 4 4 5 4 4 4 4 4 4 3 3 3 2 2
0 0 0 0 0 0 0 0 0 1 1 1 1 1 1 1 1 1 1 1 1 1 2 2 2 2 2 2 2 3 4 4 4 4 4 4 4 3 3 2 2 2 1 1
0 0 0 0 0 0 0 0 0 0 1 1 1 1 1 1 1 1 1 1 1 2 2 2 2 2 2 2 2 2 4 4 4 4 4 4 3 3 2 2 2 1 1 1
0 0 0 0 0 0 0 0 0 0 0 1 1 1 1 1 1 1 1 1 2 2 2 2 2 2 1 1 1 2 3 3 3 4 4 4 3 2 2 2 2 1 1 2
0 0 0 0 0 0 0 0 0 0 0 0 0 1 1 1 1 1 1 2 2 2 2 2 2 1 1 1 1 1 2 2 2 2 2 2 2 2 2 2 2 2 2 2
0 0 0 0 0 0 0 0 0 0 0 0 0 1 1 1 0 1 1 1 2 2 1 1 1 0 0 0 1 1 1 1 1 1 1 1 1 2 2 2 1 1 1 1
0 0 0 0 0 0 0 0 0 0 0 0 0 0 1 0 0 0 1 1 1 1 1 0 0 0 0 0 0 0 1 1 1 1 1 1 1 1 1 1 1 1 1 1
0 0 0 0 0 0 0 0 0 0 0 0 0 0 0 0 0 0 0 0 0 0 0 0 0 0 0 0 0 0 1 1 1 1 1 1 1 1 1 1 1 1 1 1
0 0 0 0 0 0 0 0 0 0 0 0 0 0 0 0 0 0 0 0 0 0 0 0 0 1 1 0 0 0 0 0 0 0 1 1 1 1 1 1 1 1 1 1
0 0 0 0 0 0 0 0 0 0 0 0 0 0 0 0 0 0 0 0 0 0 0 0 0 1 1 1 0 0 0 0 0 0 0 1 1 1 1 1 1 1 1 1
0 0 0 0 0 0 0 0 0 0 0 0 0 0 0 0 0 0 0 0 0 0 0 0 0 0 0 0 0 0 0 0 0 0 0 0 1 1 0 0 0 1 1 1
0 0 0 0 0 0 0 0 0 0 0 0 0 0 0 0 0 0 0 0 0 0 0 0 0 0 0 0 0 0 0 0 0 0 0 0 0 0 0 0 0 0 0 1
0 0 0 0 0 0 0 0 0 0 0 0 0 0 0 0 0 0 0 0 0 0 0 0 0 0 0 0 0 0 0 0 0 0 0 0 0 0 0 0 0 0 1 1
0 0 0 0 0 0 0 0 0 0 0 0 0 0 0 0 0 0 0 0 0 0 0 0 0 0 0 0 0 0 0 0 0 0 0 0 0 0 0 0 1 1 1 1
1 1 0 0 0 0 0 0 0 0 0 0 0 0 0 0 0 0 0 0 0 0 0 0 0 0 0 0 0 0 0 0 0 0 0 0 0 0 0 1 1 1 1 1
1 1 0 0 0 0 0 0 0 0 0 0 0 0 0 0 0 0 0 0 0 0 0 0 0 0 0 0 0 0 0 0 0 0 0 0 0 0 0 1 1 1 1 1
0 0 0 0 0 0 0 0 0 1 1 0 0 0 0 0 0 0 0 0 0 0 0 0 0 0 0 0 0 0 0 0 0 0 0 0 0 0 0 0 1 1 1 1
0 0 0 0 0 0 0 0 0 1 0 0 0 0 0 0 0 0 0 0 0 0 0 0 0 0 0 0 0 0 0 0 0 0 0 0 0 0 0 1 1 1 1 1
0 0 0 0 0 0 0 0 0 0 0 0 0 0 0 0 0 0 0 0 0 0 0 0 0 0 0 0 0 0 0 0 0 0 0 0 0 0 1 1 1 1 0 0
0 0 0 0 0 0 0 0 0 0 0 0 0 0 0 0 0 0 0 0 0 0 0 0 0 0 0 0 0 0 0 0 0 0 0 0 0 0 0 0 0 0 0 0
0 0 0 0 0 0 0 0 0 0 0 0 0 0 0 0 0 0 0 0 0 0 0 0 0 0 0 0 0 0 0 0 0 0 0 0 0 0 0 0 0 0 0 0
Wind_Speed
11 9 10 12 12 11 11 9 5 5 5 5 5 6 9 8 6 9 10 9 8 7 7 6 6 6 6 6 5 4 4 3 2 2 3 3 2 2 2 1 1 2 3 3
8 9 13 14 12 11 9 9 6 3 4 7 5 3 6 8 5 6 9 10 9 8 7 6 5 5 5 5 4 3 3 4 3 3 2 2 3 3 1 1 1 1 2 2
5 9 12 12 10 10 8 9 7 8 9 8 4 2 5 7 5 4 6 9 9 8 7 6 5 5 4 4 3 4 3 3 4 4 3 4 2 2 2 2 1 1 2 2
6 9 10 9 8 9 8 8 9 9 8 4 1 2 3 2 2 3 5 7 7 7 6 5 5 4 2 2 2 3 2 1 2 4 4 6 5 4 4 2 1 1 2 2
9 9 9 7 6 7 7 7 7 10 9 6 5 2 1 2 4 6 6 8 8 6 5 4 4 2 1 1 0 1 2 0 1 3 4 5 5 5 5 5 4 3 3 3
15 13 9 7 8 8 8 5 6 10 8 7 5 1 2 4 7 6 7 7 6 5 4 4 2 2 1 2 2 1 0 1 1 3 4 5 6 6 6 7 6 5 3 3
11 12 10 7 7 7 9 6 4 5 3 6 5 2 3 4 6 7 6 6 5 4 3 2 1 2 2 2 2 2 2 2 3 4 5 5 6 6 7 8 6 5 4 3
5 6 6 5 6 7 8 7 3 5 6 4 2 1 2 3 3 4 5 4 2 1 1 0 2 1 2 4 3 4 4 4 4 4 5 5 6 6 6 6 6 6 5 5
5 7 7 6 6 5 8 9 9 8 8 1 5 4 1 1 2 2 3 3 3 4 5 4 5 5 6 6 6 6 5 5 5 5 6 6 7 6 6 6 7 6 6 6
5 8 7 6 7 3 7 9 7 7 8 7 6 5 3 3 2 5 5 6 7 7 7 8 7 7 7 7 6 6 6 6 6 6 6 8 6 7 7 7 7 7 7 7
8 8 8 8 9 11 8 8 8 7 7 9 5 6 4 2 3 5 6 8 8 9 9 9 9 9 9 9 9 7 8 7 7 6 6 6 6 6 7 7 7 7 7 7
8 7 6 11 16 15 8 7 8 7 8 7 6 6 3 3 5 7 8 9 9 9 9 10 10 10 9 9 9 9 8 8 8 7 7 7 7 7 8 8 7 8 8 7
8 6 6 4 7 11 7 4 5 6 6 7 7 5 2 7 9 10 10 10 9 9 9 9 9 9 9 9 9 9 9 9 9 9 9 9 8 8 9 9 8 8 8 8
5 7 8 6 3 3 4 4 4 5 6 7 9 9 8 11 11 11 10 9 10 9 9 9 8 8 8 8 9 10 10 10 10 10 11 10 9 9 9 10 9 9 9 9
4 8 10 9 7 6 5 5 5 5 6 8 9 9 11 11 11 10 10 10 10 10 10 10 9 8 8 9 9 9 10 10 10 10 11 10 10 10 9 9 10 10 10 11
2 7 11 11 9 9 8 5 4 5 6 8 9 8 11 10 10 10 10 10 9 10 11 12 11 11 10 10 10 11 10 10 10 11 11 10 10 11 10 10 10 10 10 10
6 6 10 10 9 10 7 3 2 5 7 8 8 8 10 11 10 10 9 8 9 11 11 12 12 11 9 10 9 10 11 11 11 11 12 11 11 12 11 13 12 11 11 10
5 7 7 10 10 9 2 1 3 4 6 7 6 8 10 10 10 8 9 9 9 10 11 11 11 11 10 10 10 10 12 12 12 12 11 11 12 13 13 12 12 11 10 9
5 5 8 9 10 7 1 2 1 4 6 5 6 8 9 10 10 5 10 9 9 10 10 10 10 11 10 11 11 11 12 12 13 13 12 13 13 14 14 13 12 11 10 10
6 6 8 9 12 13 4 6 3 3 0 7 7 7 8 9 8 7 10 9 9 9 9 9 10 10 10 11 11 11 13 13 13 13 13 14 13 13 14 13 12 10 9 10
8 9 9 10 12 5 6 5 2 5 4 5 6 6 7 6 6 8 9 9 9 9 9 10 10 9 9 10 10 12 13 13 13 13 13 13 13 12 12 10 9 9 9 9
6 7 7 7 9 3 3 1 4 5 3 4 5 6 6 6 7 8 9 9 9 10 10 11 9 9 8 9 10 12 12 12 13 13 13 13 13 12 11 10 9 9 8 8
4 4 3 3 2 3 1 2 4 3 2 3 4 5 5 6 7 8 8 8 9 10 10 10 10 10 9 10 10 12 12 12 13 13 13 13 13 11 10 9 9 8 6 6
4 2 3 5 6 4 3 1 2 2 0 2 2 3 4 5 7 7 7 7 8 9 9 9 11 11 11 11 11 11 11 11 13 13 13 12 11 11 9 7 7 6 6 5
9 7 8 8 7 7 5 2 2 2 2 1 2 3 3 4 6 6 6 7 7 8 8 9 9 10 11 11 11 11 11 11 13 13 12 12 10 9 8 7 6 6 4 3
10 8 6 5 3 4 3 1 3 3 2 2 1 2 3 3 5 6 6 6 7 8 8 9 10 10 11 11 11 11 10 11 12 11 11 10 9 8 7 7 7 5 5 4
Wind_Direction
241 243 261 265 267 267 277 276 264 251 242 250 230 170 136 122 119 120 115 111 104 100 102 95 89 85 84 76 71 64 52 44 18 20 343 336 324 302 297 292 302 301 304 312
262 257 268 273 281 288 285 298 304 294 293 276 246 144 109 96 98 108 119 122 124 122 114 108 107 104 96 88 82 84 57 34 16 19 319 286 298 295 274 305 312 302 310 310
265 276 280 283 301 304 307 309 307 283 254 254 263 86 79 81 86 103 122 126 131 133 131 126 113 96 95 95 78 65 53 28 12 344 326 332 310 295 315 320 292 309 279 271
279 263 270 284 303 303 306 298 291 297 296 298 308 190 107 98 152 180 147 135 131 128 131 129 126 116 111 121 130 122 100 35 355 332 341 333 319 320 317 311 305 300 276 266
296 282 280 289 285 283 279 279 306 334 335 325 13 34 79 174 212 195 167 147 135 137 136 135 128 131 98 328 10 136 133 113 326 316 305 310 315 321 321 325 312 298 271 244
305 298 291 290 287 281 286 281 349 17 7 331 307 317 181 207 204 185 164 141 141 140 142 143 146 157 233 270 283 307 321 236 275 291 300 300 302 304 304 300 291 283 270 247
304 298 296 300 312 331 322 322 347 358 4 266 263 278 150 200 174 162 151 134 133 139 146 144 196 226 250 277 307 329 331 329 323 311 309 309 306 299 286 279 283 286 286 281
282 292 293 317 325 317 302 300 298 291 268 240 163 172 77 109 123 146 130 114 109 96 85 21 302 308 328 338 357 352 351 338 321 303 294 288 285 281 282 295 311 305 297 290
285 303 306 315 297 310 313 323 327 305 311 30 131 128 130 223 171 104 78 69 51 22 11 357 353 360 0 359 1 355 346 337 323 305 297 281 271 274 282 288 283 277 277 285
293 306 310 296 286 298 320 332 343 341 337 338 100 111 152 178 31 29 12 22 26 14 4 4 3 1 4 358 353 348 340 330 326 322 312 308 309 302 291 284 280 278 280 279
319 308 315 333 355 347 345 354 353 343 347 334 10 91 118 86 38 20 11 20 15 5 358 355 356 1 360 353 344 342 338 334 328 319 310 306 303 301 298 291 286 283 279 274
339 323 349 18 355 335 337 353 353 350 342 330 347 102 102 83 61 34 17 12 9 359 351 352 355 357 351 343 340 337 334 327 323 320 316 311 308 308 306 303 301 298 290 282
344 326 319 16 355 300 295 338 352 343 317 336 350 80 94 61 39 25 14 5 355 354 358 358 1 354 344 340 336 331 327 324 324 323 320 317 316 314 308 304 297 293 291 285
292 292 307 312 280 260 293 325 348 348 343 342 360 1 29 36 18 9 5 356 349 354 0 359 359 348 344 336 332 329 326 327 325 324 319 314 311 306 303 302 300 298 294 289
298 307 309 308 308 316 324 322 332 344 344 333 342 349 29 26 10 4 356 347 345 353 355 354 349 344 339 335 332 328 327 326 324 319 315 312 310 308 306 303 300 296 290 288
299 307 307 307 311 306 296 293 315 332 331 328 330 354 31 15 3 353 345 343 351 354 351 346 342 340 338 335 331 331 327 325 323 319 317 315 315 312 309 305 300 296 293 291
295 292 298 300 298 295 307 301 298 329 334 334 336 4 12 358 352 344 350 10 2 352 347 344 341 337 336 335 336 330 328 325 323 320 316 316 314 311 306 303 302 297 294 291
273 298 294 292 296 295 320 42 29 349 329 329 349 15 5 353 344 0 43 26 3 353 347 343 337 334 335 337 334 331 327 324 322 319 318 318 315 309 305 301 298 295 290 286
201 257 284 293 295 296 202 164 61 337 325 10 22 3 352 348 325 63 44 21 8 356 346 338 335 334 336 337 337 330 324 324 323 322 322 319 315 309 305 303 299 295 292 287
186 209 255 276 292 299 316 113 95 304 72 42 19 2 348 343 329 359 13 9 4 352 343 337 337 337 337 336 335 327 326 326 326 325 322 317 312 308 305 300 298 295 291 287
217 222 244 272 282 306 86 115 265 310 61 18 2 351 346 1 333 339 354 3 356 346 340 342 341 338 339 337 335 327 326 327 327 324 319 316 312 307 302 300 299 296 294 291
252 260 259 270 284 333 94 357 18 62 50 349 351 349 353 341 335 346 355 355 348 342 343 343 338 337 338 339 335 328 327 329 326 322 319 316 313 311 311 309 304 302 299 297
275 300 322 331 324 163 285 20 85 97 352 342 347 352 345 337 340 347 351 349 343 342 343 339 335 335 338 340 337 329 328 328 326 323 319 317 316 313 311 311 309 308 304 300
314 26 303 297 292 268 268 239 139 145 262 323 333 337 345 338 338 346 347 343 342 341 339 337 334 336 337 338 336 330 329 329 327 323 320 318 317 317 319 315 312 311 316 318
309 283 272 271 272 272 265 241 207 175 182 268 314 344 349 340 339 344 341 344 342 336 336 336 334 334 336 336 334 333 336 333 328 323 320 320 318 317 316 315 312 312 323 320
283 288 288 296 332 299 288 195 187 195 216 240 303 324 333 341 339 338 340 342 337 335 335 335 335 336 336 334 334 336 338 334 328 323 323 321 319 321 320 319 318 308 293 276